Location: Stone Trail Observatory
(44.2408°N, 105.6081°W)
Time: 04:42:49
(UTC-07:00)

Iridium 6 - Visible Passes

Search period start: 27 November 2014 00:00
Search period end: 07 December 2014 00:00
Orbit: 776 x 779 km, 86.4° (Epoch: 26 November)

Date Brightness Start Highest point End Pass type
(mag) Time Alt. Az. Time Alt. Az. Time Alt. Az.
27 Nov 8.1 05:17:08 10° NNE 05:20:50 19° ENE 05:24:30 10° ESE visible
27 Nov 6.2 18:15:00 10° SSE 18:18:44 33° ESE 18:18:44 33° ESE visible
27 Nov 7.5 19:56:05 10° SW 19:59:18 25° W 19:59:18 25° W visible
28 Nov 8.6 04:45:45 10° NE 04:46:52 11° ENE 04:48:00 10° E visible
28 Nov 5.6 06:23:12 10° N 06:28:27 84° E 06:33:39 10° S visible
28 Nov 6.6 17:42:39 10° SE 17:46:28 21° E 17:46:48 21° ENE visible
28 Nov 6.3 19:21:46 10° SSW 19:26:47 49° W 19:27:23 47° WNW visible
29 Nov 6.6 05:49:49 10° N 05:54:51 47° E 05:59:50 10° SSE visible
29 Nov 7.2 17:11:34 10° E 17:13:19 12° ENE 17:14:59 10° NE visible
29 Nov 5.4 18:47:59 10° S 18:53:12 87° W 18:55:35 34° N visible
29 Nov 8.5 20:33:13 10° W 20:34:44 11° WNW 20:36:10 10° NW visible
30 Nov 7.6 05:16:44 10° NNE 05:21:07 27° ENE 05:25:28 10° SE visible
30 Nov 5.6 18:14:42 10° SSE 18:19:44 52° E 18:23:56 15° NNE visible
30 Nov 7.9 19:57:01 10° WSW 20:00:47 20° WNW 20:04:33 10° NNW visible
01 Dec 8.3 04:44:12 10° NE 04:47:14 15° ENE 04:50:16 10° ESE visible
01 Dec 5.5 06:23:20 10° N 06:28:31 69° W 06:33:41 10° S visible
01 Dec 6.3 17:41:57 10° SE 17:46:23 29° E 17:50:50 10° NNE visible
01 Dec 7.0 19:22:16 10° SW 19:26:59 35° W 19:31:44 10° NNW visible
02 Dec 5.9 05:49:47 10° N 05:55:00 67° E 06:00:10 10° SSE visible
02 Dec 6.9 17:09:56 10° ESE 17:13:09 17° ENE 17:16:23 10° NE visible
02 Dec 5.9 18:48:10 10° SSW 18:53:19 62° W 18:58:29 10° N visible
03 Dec 7.0 05:16:30 10° NNE 05:21:20 37° E 05:26:08 10° SSE visible
03 Dec 5.4 18:14:35 10° S 18:19:46 75° E 18:24:59 10° N visible
03 Dec 8.3 19:58:22 10° WSW 20:01:06 14° WNW 20:03:52 10° NW visible
04 Dec 7.9 04:43:35 10° NNE 04:47:33 22° ENE 04:51:30 10° SE visible
04 Dec 5.8 06:23:33 10° NNW 06:28:33 48° W 06:33:31 10° SSW visible
04 Dec 5.9 17:41:30 10° SSE 17:46:20 41° E 17:51:13 10° NNE visible
04 Dec 7.6 19:22:59 10° SW 19:27:13 25° WNW 19:31:28 10° NNW visible
05 Dec 8.5 04:11:34 10° NE 04:13:37 12° ENE 04:15:39 10° E visible
05 Dec 5.5 05:49:51 10° N 05:55:05 87° W 06:00:18 10° S visible
05 Dec 6.6 17:08:59 10° SE 17:13:02 24° E 17:17:06 10° NNE visible
05 Dec 6.6 18:48:32 10° SSW 18:53:28 43° W 18:58:26 10° N visible
06 Dec 6.3 05:16:24 10° N 05:21:30 53° E 05:26:35 10° SSE visible
06 Dec 5.6 18:14:38 10° S 18:19:50 78° W 18:25:04 10° N visible
